Time,TemperatureF,DewpointF,PressureIn,WindDirection,WindDirectionDegrees,WindSpeedMPH,WindSpeedGustMPH,Humidity,HourlyPrecipIn,Conditions,Clouds,dailyrainin,SoftwareType,DateUTC
2013-04-01 00:00:00,60.9,57.6,29.92,WSW,246,4.0,0.0,89,0.00,,---,0.05,VWS V14.01,2013-04-01 04:00:00,
2013-04-01 00:05:00,60.9,57.6,29.92,WSW,254,4.0,0.0,89,0.00,,---,0.00,VWS V14.01,2013-04-01 04:05:00,
2013-04-01 00:10:00,60.9,57.6,29.92,SW,225,0.0,0.0,89,0.00,,---,0.00,VWS V14.01,2013-04-01 04:10:00,
2013-04-01 00:12:00,60.8,57.5,29.92,WSW,247,0.0,0.0,89,0.00,,---,0.00,VWS V14.01,2013-04-01 04:12:00,
2013-04-01 00:15:00,60.9,57.6,29.92,WSW,240,3.0,0.0,89,0.00,,---,0.00,VWS V14.01,2013-04-01 04:15:00,
2013-04-01 00:17:00,60.9,57.6,29.92,WSW,240,3.0,0.0,89,0.00,,---,0.00,VWS V14.01,2013-04-01 04:17:00,
2013-04-01 00:20:00,60.9,57.6,29.92,West,263,4.0,0.0,89,0.00,,---,0.00,VWS V14.01,2013-04-01 04:20:00,
2013-04-01 00:22:00,60.9,57.6,29.92,West,263,4.0,0.0,89,0.00,,---,0.00,VWS V14.01,2013-04-01 04:22:00,
2013-04-01 00:25:00,60.9,57.6,29.92,West,264,2.0,0.0,89,0.00,,---,0.00,VWS V14.01,2013-04-01 04:25:00,
2013-04-01 00:27:00,60.9,57.6,29.92,West,264,2.0,0.0,89,0.00,,---,0.00,VWS V14.01,2013-04-01 04:27:00,
2013-04-01 00:30:00,60.9,57.6,29.92,West,263,0.0,0.0,89,0.00,,---,0.00,VWS V14.01,2013-04-01 04:30:00,
2013-04-01 00:32:00,60.9,57.6,29.92,West,263,0.0,0.0,89,0.00,,---,0.00,VWS V14.01,2013-04-01 04:32:00,
2013-04-01 00:35:00,60.9,57.6,29.92,West,272,1.0,0.0,89,0.00,,---,0.00,VWS V14.01,2013-04-01 04:35:00,
2013-04-01 00:37:00,60.9,57.6,29.92,West,272,1.0,0.0,89,0.00,,---,0.00,VWS V14.01,2013-04-01 04:37:00,
2013-04-01 00:40:00,60.9,57.6,29.92,WSW,247,2.0,0.0,89,0.00,,---,0.00,VWS V14.01,2013-04-01 04:40:00,
2013-04-01 00:42:00,60.9,57.6,29.92,WSW,247,2.0,0.0,89,0.00,,---,0.00,VWS V14.01,2013-04-01 04:42:00,
2013-04-01 00:45:00,60.8,57.8,29.92,South,187,1.0,0.0,90,0.00,,---,0.00,VWS V14.01,2013-04-01 04:45:00,
2013-04-01 00:47:00,60.8,57.8,29.92,South,180,5.0,0.0,90,0.00,,---,0.00,VWS V14.01,2013-04-01 04:47:00,
2013-04-01 00:50:00,60.9,58.0,29.92,WSW,257,4.0,0.0,90,0.00,,---,0.00,VWS V14.01,2013-04-01 04:50:00,
2013-04-01 00:52:00,60.9,58.0,29.92,WSW,256,4.0,0.0,90,0.00,,---,0.00,VWS V14.01,2013-04-01 04:52:00,
2013-04-01 00:55:00,60.9,58.0,29.92,WSW,256,1.0,0.0,90,0.00,,---,0.00,VWS V14.01,2013-04-01 04:55:00,
2013-04-01 00:57:00,60.9,58.0,29.92,WSW,248,6.0,0.0,90,0.00,,---,0.00,VWS V14.01,2013-04-01 04:57:00,
2013-04-01 01:00:00,61.0,58.0,29.92,SW,236,3.0,0.0,90,0.00,,---,0.00,VWS V14.01,2013-04-01 05:00:00,
2013-04-01 01:02:00,61.0,58.0,29.92,SW,236,0.0,0.0,90,0.00,,---,0.00,VWS V14.01,2013-04-01 05:02:00,
2013-04-01 01:05:00,61.0,57.7,29.92,WSW,257,3.0,0.0,89,0.00,,---,0.00,VWS V14.01,2013-04-01 05:05:00,
2013-04-01 01:07:00,61.0,57.7,29.92,WSW,249,0.0,0.0,89,0.00,,---,0.00,VWS V14.01,2013-04-01 05:07:00,
2013-04-01 01:10:00,60.9,58.0,29.92,SW,234,2.0,0.0,90,0.00,,---,0.00,VWS V14.01,2013-04-01 05:10:00,
2013-04-01 01:12:00,60.9,58.0,29.92,WSW,239,1.0,0.0,90,0.00,,---,0.00,VWS V14.01,2013-04-01 05:12:00,
2013-04-01 01:15:00,60.9,58.0,29.92,WSW,238,4.0,0.0,90,0.00,,---,0.00,VWS V14.01,2013-04-01 05:15:00,
2013-04-01 01:17:00,60.9,58.0,29.92,West,265,9.0,0.0,90,0.00,,---,0.00,VWS V14.01,2013-04-01 05:17:00,
2013-04-01 01:20:00,60.9,58.0,29.92,West,275,2.0,0.0,90,0.00,,---,0.00,VWS V14.01,2013-04-01 05:20:00,
2013-04-01 01:22:00,60.9,58.0,29.92,West,275,0.0,0.0,90,0.00,,---,0.00,VWS V14.01,2013-04-01 05:22:00,
2013-04-01 01:25:00,60.9,58.0,29.92,WSW,242,1.0,0.0,90,0.00,,---,0.00,VWS V14.01,2013-04-01 05:25:00,
2013-04-01 01:27:00,61.0,58.0,29.92,WSW,244,1.0,0.0,90,0.00,,---,0.00,VWS V14.01,2013-04-01 05:27:00,
2013-04-01 01:30:00,61.0,58.0,29.92,WSW,250,6.0,0.0,90,0.00,,---,0.00,VWS V14.01,2013-04-01 05:30:00,
2013-04-01 01:32:00,61.0,58.0,29.92,WSW,239,4.0,0.0,90,0.00,,---,0.00,VWS V14.01,2013-04-01 05:32:00,
2013-04-01 01:35:00,61.0,58.0,29.92,WSW,256,1.0,0.0,90,0.00,,---,0.00,VWS V14.01,2013-04-01 05:35:00,
2013-04-01 01:37:00,61.0,58.0,29.91,WSW,257,2.0,0.0,90,0.00,,---,0.00,VWS V14.01,2013-04-01 05:37:00,
2013-04-01 01:40:00,61.0,58.0,29.91,West,265,3.0,0.0,90,0.00,,---,0.00,VWS V14.01,2013-04-01 05:40:00,
2013-04-01 01:43:00,61.0,58.0,29.91,West,264,1.0,0.0,90,0.00,,---,0.00,VWS V14.01,2013-04-01 05:43:00,
2013-04-01 01:45:00,61.1,58.2,29.91,West,262,1.0,0.0,90,0.00,,---,0.00,VWS V14.01,2013-04-01 05:45:00,
2013-04-01 01:48:00,61.1,58.2,29.91,SW,232,2.0,0.0,90,0.00,,---,0.00,VWS V14.01,2013-04-01 05:48:00,
2013-04-01 01:50:00,61.2,58.2,29.91,WSW,242,3.0,0.0,90,0.00,,---,0.00,VWS V14.01,2013-04-01 05:50:00,
2013-04-01 01:53:00,61.2,58.2,29.91,WSW,257,3.0,0.0,90,0.00,,---,0.00,VWS V14.01,2013-04-01 05:53:00,
2013-04-01 01:55:00,61.2,58.2,29.91,WSW,254,1.0,0.0,90,0.00,,---,0.00,VWS V14.01,2013-04-01 05:55:00,
2013-04-01 01:58:00,61.2,58.2,29.90,WSW,254,1.0,0.0,90,0.00,,---,0.00,VWS V14.01,2013-04-01 05:58:00,
2013-04-01 02:00:00,61.2,58.2,29.90,WSW,249,2.0,0.0,90,0.00,,---,0.00,VWS V14.01,2013-04-01 06:00:00,
2013-04-01 02:03:00,61.2,58.2,29.90,WSW,253,5.0,0.0,90,0.00,,---,0.00,VWS V14.01,2013-04-01 06:03:00,
2013-04-01 02:05:00,61.2,57.9,29.90,West,262,2.0,0.0,89,0.00,,---,0.00,VWS V14.01,2013-04-01 06:05:00,
2013-04-01 02:08:00,61.1,57.8,29.90,WSW,252,0.0,0.0,89,0.00,,---,0.00,VWS V14.01,2013-04-01 06:08:00,
2013-04-01 02:10:00,61.0,57.7,29.90,SW,236,5.0,0.0,89,0.00,,---,0.00,VWS V14.01,2013-04-01 06:10:00,
2013-04-01 02:13:00,60.9,57.6,29.90,SW,236,4.0,0.0,89,0.00,,---,0.00,VWS V14.01,2013-04-01 06:13:00,
2013-04-01 02:15:00,60.8,57.8,29.90,WSW,242,0.0,0.0,90,0.00,,---,0.00,VWS V14.01,2013-04-01 06:15:00,
2013-04-01 02:18:00,60.8,57.8,29.90,WSW,242,1.0,0.0,90,0.00,,---,0.00,VWS V14.01,2013-04-01 06:18:00,
2013-04-01 02:20:00,60.7,57.8,29.90,WSW,242,0.0,0.0,90,0.00,,---,0.00,VWS V14.01,2013-04-01 06:20:00,
2013-04-01 02:23:00,60.7,57.8,29.90,WSW,241,1.0,0.0,90,0.00,,---,0.00,VWS V14.01,2013-04-01 06:23:00,
2013-04-01 02:25:00,60.6,57.7,29.90,WSW,250,1.0,0.0,90,0.00,,---,0.00,VWS V14.01,2013-04-01 06:25:00,
2013-04-01 02:28:00,60.6,57.7,29.90,WSW,249,3.0,0.0,90,0.00,,---,0.00,VWS V14.01,2013-04-01 06:28:00,
2013-04-01 02:30:00,60.4,57.5,29.89,SW,234,0.0,0.0,90,0.00,,---,0.00,VWS V14.01,2013-04-01 06:30:00,
2013-04-01 02:33:00,60.4,58.1,29.89,WSW,239,0.0,0.0,92,0.00,,---,0.00,VWS V14.01,2013-04-01 06:33:00,
2013-04-01 02:35:00,60.5,57.6,29.89,WSW,246,0.0,0.0,90,0.00,,---,0.00,VWS V14.01,2013-04-01 06:35:00,
2013-04-01 02:38:00,60.5,57.6,29.89,WSW,247,0.0,0.0,90,0.00,,---,0.00,VWS V14.01,2013-04-01 06:38:00,
2013-04-01 02:40:00,60.5,57.6,29.89,WSW,245,0.0,0.0,90,0.00,,---,0.00,VWS V14.01,2013-04-01 06:40:00,
2013-04-01 02:43:00,60.5,57.6,29.89,WSW,245,0.0,0.0,90,0.00,,---,0.00,VWS V14.01,2013-04-01 06:43:00,
2013-04-01 02:45:00,60.6,57.7,29.89,WSW,245,0.0,0.0,90,0.00,,---,0.00,VWS V14.01,2013-04-01 06:45:00,
2013-04-01 02:48:00,60.5,57.6,29.89,WSW,255,5.0,0.0,90,0.00,,---,0.00,VWS V14.01,2013-04-01 06:48:00,
2013-04-01 02:50:00,60.6,57.7,29.89,WSW,246,5.0,0.0,90,0.00,,---,0.00,VWS V14.01,2013-04-01 06:50:00,
2013-04-01 02:53:00,60.7,57.4,29.89,West,269,0.0,0.0,89,0.00,,---,0.00,VWS V14.01,2013-04-01 06:53:00,
2013-04-01 02:55:00,60.8,57.5,29.89,WSW,249,0.0,0.0,89,0.00,,---,0.00,VWS V14.01,2013-04-01 06:55:00,
2013-04-01 02:58:00,60.8,57.5,29.89,WSW,254,5.0,0.0,89,0.00,,---,0.00,VWS V14.01,2013-04-01 06:58:00,
2013-04-01 03:00:00,60.9,57.6,29.89,WSW,258,2.0,0.0,89,0.00,,---,0.00,VWS V14.01,2013-04-01 07:00:00,
2013-04-01 03:03:00,60.9,57.6,29.89,WSW,253,2.0,0.0,89,0.00,,---,0.00,VWS V14.01,2013-04-01 07:03:00,
2013-04-01 03:05:00,61.0,57.4,29.88,WSW,256,0.0,0.0,88,0.00,,---,0.00,VWS V14.01,2013-04-01 07:05:00,
2013-04-01 03:08:00,61.0,57.4,29.89,WSW,256,0.0,0.0,88,0.00,,---,0.00,VWS V14.01,2013-04-01 07:08:00,
2013-04-01 03:10:00,61.0,57.4,29.89,WSW,252,5.0,0.0,88,0.00,,---,0.00,VWS V14.01,2013-04-01 07:10:00,
2013-04-01 03:13:00,61.1,57.5,29.89,WSW,253,2.0,0.0,88,0.00,,---,0.00,VWS V14.01,2013-04-01 07:13:00,
2013-04-01 03:15:00,61.1,57.2,29.89,WSW,251,0.0,0.0,87,0.00,,---,0.00,VWS V14.01,2013-04-01 07:15:00,
2013-04-01 03:18:00,61.1,57.2,29.89,WSW,250,0.0,0.0,87,0.00,,---,0.00,VWS V14.01,2013-04-01 07:18:00,
2013-04-01 03:20:00,61.3,57.4,29.89,WSW,246,0.0,0.0,87,0.00,,---,0.00,VWS V14.01,2013-04-01 07:20:00,
2013-04-01 03:23:00,61.4,57.2,29.89,WSW,246,0.0,0.0,86,0.00,,---,0.00,VWS V14.01,2013-04-01 07:23:00,
2013-04-01 03:25:00,61.5,57.3,29.89,WSW,246,2.0,0.0,86,0.00,,---,0.00,VWS V14.01,2013-04-01 07:25:00,
2013-04-01 03:28:00,61.4,57.2,29.89,WSW,246,0.0,0.0,86,0.00,,---,0.00,VWS V14.01,2013-04-01 07:28:00,
2013-04-01 03:30:00,61.4,57.2,29.89,WSW,244,0.0,0.0,86,0.00,,---,0.00,VWS V14.01,2013-04-01 07:30:00,
2013-04-01 03:33:00,61.4,57.2,29.89,WSW,242,0.0,0.0,86,0.00,,---,0.00,VWS V14.01,2013-04-01 07:33:00,
2013-04-01 03:35:00,61.4,57.2,29.89,WSW,242,0.0,0.0,86,0.00,,---,0.00,VWS V14.01,2013-04-01 07:35:00,
2013-04-01 03:38:00,61.4,57.2,29.88,WSW,240,0.0,0.0,86,0.00,,---,0.00,VWS V14.01,2013-04-01 07:38:00,
2013-04-01 03:40:00,61.3,57.4,29.88,WSW,241,1.0,0.0,87,0.00,,---,0.00,VWS V14.01,2013-04-01 07:40:00,
2013-04-01 03:43:00,61.2,57.3,29.88,WSW,240,0.0,0.0,87,0.00,,---,0.00,VWS V14.01,2013-04-01 07:43:00,
2013-04-01 03:45:00,61.2,57.3,29.88,WSW,240,0.0,0.0,87,0.00,,---,0.00,VWS V14.01,2013-04-01 07:45:00,
2013-04-01 03:48:00,61.1,57.2,29.88,WSW,240,0.0,0.0,87,0.00,,---,0.00,VWS V14.01,2013-04-01 07:48:00,
2013-04-01 03:50:00,61.0,57.1,29.88,WSW,240,1.0,0.0,87,0.00,,---,0.00,VWS V14.01,2013-04-01 07:50:00,
2013-04-01 03:53:00,60.9,57.0,29.88,WSW,240,0.0,0.0,87,0.00,,---,0.00,VWS V14.01,2013-04-01 07:53:00,
2013-04-01 03:55:00,60.8,57.2,29.88,WSW,240,0.0,0.0,88,0.00,,---,0.00,VWS V14.01,2013-04-01 07:55:00,
2013-04-01 03:58:00,60.8,57.2,29.87,WSW,240,0.0,0.0,88,0.00,,---,0.00,VWS V14.01,2013-04-01 07:58:00,
2013-04-01 04:00:00,60.7,57.1,29.87,WSW,238,0.0,0.0,88,0.00,,---,0.00,VWS V14.01,2013-04-01 08:00:00,
2013-04-01 04:03:00,60.7,57.1,29.87,WSW,239,0.0,0.0,88,0.00,,---,0.00,VWS V14.01,2013-04-01 08:03:00,
2013-04-01 04:05:00,60.6,57.0,29.87,WSW,238,0.0,0.0,88,0.00,,---,0.00,VWS V14.01,2013-04-01 08:05:00,
2013-04-01 04:08:00,60.5,56.9,29.87,WSW,239,0.0,0.0,88,0.00,,---,0.00,VWS V14.01,2013-04-01 08:08:00,
2013-04-01 04:10:00,60.5,56.9,29.87,WSW,244,0.0,0.0,88,0.00,,---,0.00,VWS V14.01,2013-04-01 08:10:00,
2013-04-01 04:13:00,60.6,57.0,29.87,WSW,244,0.0,0.0,88,0.00,,---,0.00,VWS V14.01,2013-04-01 08:13:00,
2013-04-01 04:15:00,60.6,57.0,29.87,WSW,251,0.0,0.0,88,0.00,,---,0.00,VWS V14.01,2013-04-01 08:15:00,
2013-04-01 04:18:00,60.6,57.0,29.87,WSW,250,2.0,0.0,88,0.00,,---,0.00,VWS V14.01,2013-04-01 08:18:00,
2013-04-01 04:20:00,60.6,57.0,29.87,WSW,247,0.0,0.0,88,0.00,,---,0.00,VWS V14.01,2013-04-01 08:20:00,
2013-04-01 04:23:00,60.6,57.0,29.87,WSW,247,2.0,0.0,88,0.00,,---,0.00,VWS V14.01,2013-04-01 08:23:00,
2013-04-01 04:25:00,60.5,56.9,29.87,WSW,247,0.0,0.0,88,0.00,,---,0.00,VWS V14.01,2013-04-01 08:25:00,
2013-04-01 04:28:00,60.5,56.9,29.87,WSW,247,0.0,0.0,88,0.00,,---,0.00,VWS V14.01,2013-04-01 08:28:00,
2013-04-01 04:30:00,60.5,56.9,29.87,WSW,247,0.0,0.0,88,0.00,,---,0.00,VWS V14.01,2013-04-01 08:30:00,
2013-04-01 04:33:00,60.5,56.9,29.87,WSW,246,1.0,0.0,88,0.00,,---,0.00,VWS V14.01,2013-04-01 08:33:00,
2013-04-01 04:35:00,60.5,56.9,29.87,WSW,246,1.0,0.0,88,0.00,,---,0.00,VWS V14.01,2013-04-01 08:35:00,
2013-04-01 04:38:00,60.5,56.9,29.87,WSW,247,0.0,0.0,88,0.00,,---,0.00,VWS V14.01,2013-04-01 08:38:00,
2013-04-01 04:40:00,60.5,56.9,29.88,WSW,247,0.0,0.0,88,0.00,,---,0.00,VWS V14.01,2013-04-01 08:40:00,
2013-04-01 04:43:00,60.5,56.9,29.88,WSW,247,0.0,0.0,88,0.00,,---,0.00,VWS V14.01,2013-04-01 08:43:00,
2013-04-01 04:45:00,60.6,57.0,29.87,WSW,247,0.0,0.0,88,0.00,,---,0.00,VWS V14.01,2013-04-01 08:45:00,
2013-04-01 04:48:00,60.7,57.1,29.88,WSW,247,0.0,0.0,88,0.00,,---,0.00,VWS V14.01,2013-04-01 08:48:00,
2013-04-01 04:50:00,60.8,57.2,29.88,WSW,247,1.0,0.0,88,0.00,,---,0.00,VWS V14.01,2013-04-01 08:50:00,
2013-04-01 04:53:00,60.9,57.3,29.88,WSW,247,0.0,0.0,88,0.00,,---,0.00,VWS V14.01,2013-04-01 08:53:00,
2013-04-01 04:55:00,61.0,57.4,29.88,WSW,246,0.0,0.0,88,0.00,,---,0.00,VWS V14.01,2013-04-01 08:55:00,
2013-04-01 04:58:00,61.1,57.5,29.88,WSW,246,0.0,0.0,88,0.00,,---,0.00,VWS V14.01,2013-04-01 08:58:00,
2013-04-01 05:00:00,61.2,57.3,29.88,WSW,246,0.0,0.0,87,0.00,,---,0.00,VWS V14.01,2013-04-01 09:00:00,
2013-04-01 05:03:00,61.3,57.4,29.88,WSW,247,0.0,0.0,87,0.00,,---,0.00,VWS V14.01,2013-04-01 09:03:00,
2013-04-01 05:05:00,61.3,57.4,29.88,WSW,247,0.0,0.0,87,0.00,,---,0.00,VWS V14.01,2013-04-01 09:05:00,
2013-04-01 05:09:00,61.4,57.5,29.88,WSW,246,0.0,0.0,87,0.00,,---,0.00,VWS V14.01,2013-04-01 09:09:00,
2013-04-01 05:10:00,61.4,57.5,29.88,WSW,247,0.0,0.0,87,0.00,,---,0.00,VWS V14.01,2013-04-01 09:10:00,
2013-04-01 05:13:00,61.4,57.5,29.88,WSW,247,0.0,0.0,87,0.00,,---,0.00,VWS V14.01,2013-04-01 09:13:00,
2013-04-01 05:15:00,61.3,57.4,29.88,WSW,247,0.0,0.0,87,0.00,,---,0.00,VWS V14.01,2013-04-01 09:15:00,
2013-04-01 05:19:00,61.2,57.3,29.88,WSW,246,0.0,0.0,87,0.00,,---,0.00,VWS V14.01,2013-04-01 09:19:00,
2013-04-01 05:20:00,61.1,57.2,29.88,WSW,246,0.0,0.0,87,0.00,,---,0.00,VWS V14.01,2013-04-01 09:20:00,
2013-04-01 05:24:00,61.1,57.2,29.88,WSW,247,0.0,0.0,87,0.00,,---,0.00,VWS V14.01,2013-04-01 09:24:00,
2013-04-01 05:25:00,60.9,57.0,29.88,WSW,247,0.0,0.0,87,0.00,,---,0.00,VWS V14.01,2013-04-01 09:25:00,
2013-04-01 05:29:00,60.8,56.9,29.88,WSW,246,3.0,0.0,87,0.00,,---,0.00,VWS V14.01,2013-04-01 09:29:00,
2013-04-01 05:30:00,60.7,57.1,29.88,WSW,247,0.0,0.0,88,0.00,,---,0.00,VWS V14.01,2013-04-01 09:30:00,
2013-04-01 05:34:00,60.6,57.0,29.88,WSW,247,0.0,0.0,88,0.00,,---,0.00,VWS V14.01,2013-04-01 09:34:00,
2013-04-01 05:35:00,60.5,56.9,29.88,WSW,246,0.0,0.0,88,0.00,,---,0.00,VWS V14.01,2013-04-01 09:35:00,
2013-04-01 05:39:00,60.5,56.9,29.88,WSW,247,0.0,0.0,88,0.00,,---,0.00,VWS V14.01,2013-04-01 09:39:00,
2013-04-01 05:40:00,60.4,57.2,29.88,WSW,247,0.0,0.0,89,0.00,,---,0.00,VWS V14.01,2013-04-01 09:40:00,
2013-04-01 05:44:00,60.3,57.0,29.88,WSW,246,0.0,0.0,89,0.00,,---,0.00,VWS V14.01,2013-04-01 09:44:00,
2013-04-01 05:45:00,60.3,57.0,29.88,WSW,247,0.0,0.0,89,0.00,,---,0.00,VWS V14.01,2013-04-01 09:45:00,
2013-04-01 05:49:00,60.3,57.0,29.88,WSW,246,0.0,0.0,89,0.00,,---,0.00,VWS V14.01,2013-04-01 09:49:00,
2013-04-01 05:50:00,60.3,57.0,29.88,WSW,247,0.0,0.0,89,0.00,,---,0.00,VWS V14.01,2013-04-01 09:50:00,
2013-04-01 05:54:00,60.2,57.0,29.88,WSW,246,0.0,0.0,89,0.00,,---,0.00,VWS V14.01,2013-04-01 09:54:00,
2013-04-01 05:55:00,60.3,57.0,29.88,WSW,246,0.0,0.0,89,0.00,,---,0.00,VWS V14.01,2013-04-01 09:55:00,
2013-04-01 05:59:00,60.2,57.0,29.88,WSW,246,0.0,0.0,89,0.00,,---,0.00,VWS V14.01,2013-04-01 09:59:00,
2013-04-01 06:00:00,60.2,57.0,29.88,WSW,247,0.0,0.0,89,0.00,,---,0.00,VWS V14.01,2013-04-01 10:00:00,
2013-04-01 06:04:00,60.2,57.0,29.88,WSW,247,0.0,0.0,89,0.00,,---,0.00,VWS V14.01,2013-04-01 10:04:00,
2013-04-01 06:05:00,60.2,57.0,29.88,WSW,247,0.0,0.0,89,0.00,,---,0.00,VWS V14.01,2013-04-01 10:05:00,
2013-04-01 06:09:00,60.1,56.8,29.88,WSW,247,0.0,0.0,89,0.00,,---,0.00,VWS V14.01,2013-04-01 10:09:00,
2013-04-01 06:10:00,60.1,56.8,29.88,WSW,246,0.0,0.0,89,0.00,,---,0.00,VWS V14.01,2013-04-01 10:10:00,
2013-04-01 06:14:00,60.1,57.2,29.88,WSW,247,0.0,0.0,90,0.00,,---,0.00,VWS V14.01,2013-04-01 10:14:00,
2013-04-01 06:15:00,60.1,57.2,29.88,WSW,246,0.0,0.0,90,0.00,,---,0.00,VWS V14.01,2013-04-01 10:15:00,
2013-04-01 06:19:00,60.2,57.3,29.88,WSW,247,0.0,0.0,90,0.00,,---,0.00,VWS V14.01,2013-04-01 10:19:00,
2013-04-01 06:20:00,60.3,57.4,29.88,WSW,247,0.0,0.0,90,0.00,,---,0.00,VWS V14.01,2013-04-01 10:20:00,
2013-04-01 06:24:00,60.4,57.5,29.88,WSW,247,0.0,0.0,90,0.00,,---,0.00,VWS V14.01,2013-04-01 10:24:00,
2013-04-01 06:25:00,60.5,57.2,29.88,WSW,247,0.0,0.0,89,0.00,,---,0.00,VWS V14.01,2013-04-01 10:25:00,
2013-04-01 06:29:00,60.4,57.2,29.88,WSW,246,0.0,0.0,89,0.00,,---,0.00,VWS V14.01,2013-04-01 10:29:00,
2013-04-01 06:30:00,60.4,57.2,29.89,WSW,246,0.0,0.0,89,0.00,,---,0.00,VWS V14.01,2013-04-01 10:30:00,
2013-04-01 06:34:00,60.4,57.2,29.89,WSW,247,0.0,0.0,89,0.00,,---,0.00,VWS V14.01,2013-04-01 10:34:00,
2013-04-01 06:35:00,60.3,57.0,29.89,WSW,247,0.0,0.0,89,0.00,,---,0.00,VWS V14.01,2013-04-01 10:35:00,
2013-04-01 06:39:00,60.2,57.0,29.89,WSW,246,0.0,0.0,89,0.00,,---,0.00,VWS V14.01,2013-04-01 10:39:00,
2013-04-01 06:40:00,60.2,57.3,29.89,WSW,247,0.0,0.0,90,0.00,,---,0.00,VWS V14.01,2013-04-01 10:40:00,
2013-04-01 06:44:00,60.3,57.4,29.89,WSW,247,0.0,0.0,90,0.00,,---,0.00,VWS V14.01,2013-04-01 10:44:00,
2013-04-01 06:45:00,60.2,57.3,29.89,WSW,247,0.0,0.0,90,0.00,,---,0.00,VWS V14.01,2013-04-01 10:45:00,
2013-04-01 06:49:00,60.2,57.3,29.89,WSW,247,0.0,0.0,90,0.00,,---,0.00,VWS V14.01,2013-04-01 10:49:00,
2013-04-01 06:50:00,60.2,57.3,29.89,WSW,246,0.0,0.0,90,0.00,,---,0.00,VWS V14.01,2013-04-01 10:50:00,
2013-04-01 06:54:00,60.2,57.3,29.88,WSW,246,0.0,0.0,90,0.00,,---,0.00,VWS V14.01,2013-04-01 10:54:00,
2013-04-01 06:55:00,60.3,57.4,29.89,WSW,247,0.0,0.0,90,0.00,,---,0.00,VWS V14.01,2013-04-01 10:55:00,
2013-04-01 06:59:00,60.3,57.4,29.89,WSW,246,0.0,0.0,90,0.00,,---,0.00,VWS V14.01,2013-04-01 10:59:00,
2013-04-01 07:00:00,60.3,57.4,29.89,WSW,247,0.0,0.0,90,0.00,,---,0.00,VWS V14.01,2013-04-01 11:00:00,
2013-04-01 07:04:00,60.2,57.3,29.89,WSW,247,0.0,0.0,90,0.00,,---,0.00,VWS V14.01,2013-04-01 11:04:00,
2013-04-01 07:05:00,60.2,57.3,29.89,WSW,246,0.0,0.0,90,0.00,,---,0.00,VWS V14.01,2013-04-01 11:05:00,
2013-04-01 07:09:00,60.2,57.3,29.89,WSW,247,0.0,0.0,90,0.00,,---,0.00,VWS V14.01,2013-04-01 11:09:00,
2013-04-01 07:10:00,60.2,57.6,29.89,WSW,246,0.0,0.0,91,0.00,,---,0.00,VWS V14.01,2013-04-01 11:10:00,
2013-04-01 07:14:00,60.2,57.6,29.89,WSW,247,0.0,0.0,91,0.00,,---,0.00,VWS V14.01,2013-04-01 11:14:00,
2013-04-01 07:15:00,60.1,57.5,29.89,WSW,247,0.0,0.0,91,0.00,,---,0.00,VWS V14.01,2013-04-01 11:15:00,
2013-04-01 07:19:00,60.1,57.5,29.89,WSW,247,0.0,0.0,91,0.00,,---,0.00,VWS V14.01,2013-04-01 11:19:00,
2013-04-01 07:20:00,60.0,57.4,29.89,WSW,246,0.0,0.0,91,0.01,,---,0.01,VWS V14.01,2013-04-01 11:20:00,
2013-04-01 07:24:00,60.0,57.4,29.89,WSW,246,0.0,0.0,91,0.01,,---,0.01,VWS V14.01,2013-04-01 11:24:00,
2013-04-01 07:25:00,60.0,57.7,29.89,WSW,246,0.0,0.0,92,0.01,,---,0.01,VWS V14.01,2013-04-01 11:25:00,
2013-04-01 07:29:00,59.9,57.6,29.90,WSW,246,0.0,0.0,92,0.01,,---,0.01,VWS V14.01,2013-04-01 11:29:00,
2013-04-01 07:30:00,59.9,57.6,29.90,WSW,246,0.0,0.0,92,0.01,,---,0.01,VWS V14.01,2013-04-01 11:30:00,
2013-04-01 07:34:00,59.9,57.6,29.90,WSW,246,0.0,0.0,92,0.01,,---,0.01,VWS V14.01,2013-04-01 11:34:00,
2013-04-01 07:35:00,59.9,57.9,29.90,WSW,247,0.0,0.0,93,0.01,,---,0.01,VWS V14.01,2013-04-01 11:35:00,
2013-04-01 07:39:00,59.8,57.8,29.90,WSW,246,0.0,0.0,93,0.01,,---,0.01,VWS V14.01,2013-04-01 11:39:00,
2013-04-01 07:40:00,59.8,57.8,29.90,WSW,247,0.0,0.0,93,0.01,,---,0.01,VWS V14.01,2013-04-01 11:40:00,
2013-04-01 07:44:00,59.8,57.8,29.90,WSW,247,0.0,0.0,93,0.01,,---,0.01,VWS V14.01,2013-04-01 11:44:00,
2013-04-01 07:45:00,59.8,57.8,29.91,WSW,246,0.0,0.0,93,0.01,,---,0.01,VWS V14.01,2013-04-01 11:45:00,
2013-04-01 07:49:00,59.8,57.8,29.90,WSW,246,0.0,0.0,93,0.01,,---,0.01,VWS V14.01,2013-04-01 11:49:00,
2013-04-01 07:50:00,59.8,57.8,29.90,WSW,246,0.0,0.0,93,0.01,,---,0.01,VWS V14.01,2013-04-01 11:50:00,
2013-04-01 07:54:00,59.9,57.9,29.91,WSW,247,0.0,0.0,93,0.01,,---,0.01,VWS V14.01,2013-04-01 11:54:00,
2013-04-01 07:55:00,59.9,57.9,29.91,WSW,246,0.0,0.0,93,0.01,,---,0.01,VWS V14.01,2013-04-01 11:55:00,
2013-04-01 07:59:00,59.9,57.9,29.91,WSW,246,0.0,0.0,93,0.01,,---,0.01,VWS V14.01,2013-04-01 11:59:00,
2013-04-01 08:00:00,59.9,57.9,29.91,WSW,246,0.0,0.0,93,0.01,,---,0.01,VWS V14.01,2013-04-01 12:00:00,
2013-04-01 08:04:00,60.0,58.0,29.91,WSW,247,0.0,0.0,93,0.01,,---,0.01,VWS V14.01,2013-04-01 12:04:00,
2013-04-01 08:05:00,60.0,58.0,29.92,WSW,246,0.0,0.0,93,0.01,,---,0.01,VWS V14.01,2013-04-01 12:05:00,
2013-04-01 08:09:00,60.0,58.0,29.92,WSW,246,0.0,0.0,93,0.01,,---,0.01,VWS V14.01,2013-04-01 12:09:00,
2013-04-01 08:10:00,60.0,58.0,29.92,WSW,247,2.0,0.0,93,0.01,,---,0.01,VWS V14.01,2013-04-01 12:10:00,
2013-04-01 08:14:00,59.9,57.9,29.92,WSW,247,1.0,0.0,93,0.01,,---,0.01,VWS V14.01,2013-04-01 12:14:00,
2013-04-01 08:15:00,59.9,57.9,29.93,WSW,247,0.0,0.0,93,0.01,,---,0.01,VWS V14.01,2013-04-01 12:15:00,
2013-04-01 08:19:00,59.9,57.9,29.92,WSW,246,0.0,0.0,93,0.01,,---,0.01,VWS V14.01,2013-04-01 12:19:00,
2013-04-01 08:20:00,59.9,57.9,29.93,WSW,246,1.0,0.0,93,0.01,,---,0.01,VWS V14.01,2013-04-01 12:20:00,
2013-04-01 08:24:00,59.9,57.9,29.93,WSW,247,1.0,0.0,93,0.00,,---,0.01,VWS V14.01,2013-04-01 12:24:00,
2013-04-01 08:25:00,60.0,58.0,29.93,WSW,247,0.0,0.0,93,0.00,,---,0.01,VWS V14.01,2013-04-01 12:25:00,
2013-04-01 08:29:00,60.0,58.0,29.93,WSW,247,0.0,0.0,93,0.00,,---,0.01,VWS V14.01,2013-04-01 12:29:00,
2013-04-01 08:30:00,60.0,58.0,29.93,WSW,247,0.0,0.0,93,0.00,,---,0.01,VWS V14.01,2013-04-01 12:30:00,
2013-04-01 08:34:00,60.1,58.1,29.93,WSW,246,0.0,0.0,93,0.00,,---,0.01,VWS V14.01,2013-04-01 12:34:00,
2013-04-01 08:35:00,60.1,58.1,29.93,WSW,247,0.0,0.0,93,0.00,,---,0.01,VWS V14.01,2013-04-01 12:35:00,
2013-04-01 08:39:00,60.1,58.1,29.92,WSW,246,0.0,0.0,93,0.00,,---,0.01,VWS V14.01,2013-04-01 12:39:00,
2013-04-01 08:40:00,60.2,58.2,29.92,WSW,244,3.0,0.0,93,0.00,,---,0.01,VWS V14.01,2013-04-01 12:40:00,
2013-04-01 08:45:00,60.2,58.2,29.92,WSW,244,1.0,0.0,93,0.00,,---,0.01,VWS V14.01,2013-04-01 12:45:00,
2013-04-01 08:49:00,60.4,58.4,29.92,WSW,244,0.0,0.0,93,0.00,,---,0.01,VWS V14.01,2013-04-01 12:49:00,
2013-04-01 08:50:00,60.4,58.4,29.92,WSW,244,0.0,0.0,93,0.00,,---,0.01,VWS V14.01,2013-04-01 12:50:00,
2013-04-01 08:55:00,60.5,58.5,29.92,WSW,244,1.0,0.0,93,0.00,,---,0.01,VWS V14.01,2013-04-01 12:55:00,
2013-04-01 09:00:00,60.8,58.8,29.92,WSW,244,0.0,0.0,93,0.00,,---,0.01,VWS V14.01,2013-04-01 13:00:00,
2013-04-01 09:05:00,61.2,58.9,29.93,WSW,244,4.0,0.0,92,0.00,,---,0.01,VWS V14.01,2013-04-01 13:05:00,
2013-04-01 09:10:00,61.5,59.2,29.93,WSW,244,2.0,0.0,92,0.00,,---,0.01,VWS V14.01,2013-04-01 13:10:00,
2013-04-01 09:15:00,61.6,59.0,29.94,WSW,257,4.0,0.0,91,0.00,,---,0.01,VWS V14.01,2013-04-01 13:15:00,
2013-04-01 09:20:00,61.4,58.5,29.94,WSW,249,4.0,0.0,90,0.00,,---,0.01,VWS V14.01,2013-04-01 13:20:00,
2013-04-01 09:25:00,61.2,58.6,29.94,WSW,238,6.0,0.0,91,0.00,,---,0.01,VWS V14.01,2013-04-01 13:25:00,
2013-04-01 09:30:00,60.9,58.3,29.93,WSW,254,2.0,0.0,91,0.01,,---,0.02,VWS V14.01,2013-04-01 13:30:00,
2013-04-01 09:35:00,60.8,58.5,29.93,WSW,254,1.0,0.0,92,0.02,,---,0.03,VWS V14.01,2013-04-01 13:35:00,
2013-04-01 09:40:00,60.5,58.5,29.94,WSW,244,3.0,0.0,93,0.02,,---,0.03,VWS V14.01,2013-04-01 13:40:00,
2013-04-01 09:45:00,60.3,58.3,29.93,WSW,256,1.0,0.0,93,0.03,,---,0.04,VWS V14.01,2013-04-01 13:45:00,
2013-04-01 09:50:00,60.3,58.3,29.93,WSW,252,0.0,0.0,93,0.03,,---,0.04,VWS V14.01,2013-04-01 13:50:00,
2013-04-01 09:55:00,60.4,58.7,29.93,WSW,253,0.0,0.0,94,0.03,,---,0.04,VWS V14.01,2013-04-01 13:55:00,
2013-04-01 10:00:00,60.6,58.9,29.93,WSW,253,0.0,0.0,94,0.03,,---,0.04,VWS V14.01,2013-04-01 14:00:00,
2013-04-01 10:05:00,61.1,59.7,29.93,WSW,253,0.0,0.0,95,0.03,,---,0.04,VWS V14.01,2013-04-01 14:05:00,
2013-04-01 10:10:00,61.5,60.1,29.92,WSW,253,0.0,0.0,95,0.03,,---,0.04,VWS V14.01,2013-04-01 14:10:00,
2013-04-01 10:15:00,61.8,60.4,29.92,WSW,253,1.0,0.0,95,0.03,,---,0.04,VWS V14.01,2013-04-01 14:15:00,
2013-04-01 10:20:00,61.9,60.2,29.92,WSW,253,0.0,0.0,94,0.03,,---,0.04,VWS V14.01,2013-04-01 14:20:00,
2013-04-01 10:25:00,62.2,60.5,29.92,WSW,253,0.0,0.0,94,0.03,,---,0.04,VWS V14.01,2013-04-01 14:25:00,
2013-04-01 10:30:00,62.3,60.6,29.92,WSW,249,0.0,0.0,94,0.03,,---,0.04,VWS V14.01,2013-04-01 14:30:00,
2013-04-01 10:35:00,62.3,60.6,29.92,WSW,248,1.0,0.0,94,0.02,,---,0.04,VWS V14.01,2013-04-01 14:35:00,
2013-04-01 10:40:00,62.5,60.8,29.92,WSW,250,3.0,0.0,94,0.01,,---,0.04,VWS V14.01,2013-04-01 14:40:00,
2013-04-01 10:45:00,62.5,60.5,29.92,WSW,244,2.0,0.0,93,0.01,,---,0.04,VWS V14.01,2013-04-01 14:45:00,
2013-04-01 10:50:00,62.7,60.7,29.92,WSW,246,1.0,0.0,93,0.00,,---,0.04,VWS V14.01,2013-04-01 14:50:00,
2013-04-01 10:55:00,63.2,61.2,29.91,SW,235,1.0,0.0,93,0.00,,---,0.04,VWS V14.01,2013-04-01 14:55:00,
2013-04-01 11:00:00,63.4,61.0,29.91,SW,221,3.0,0.0,92,0.00,,---,0.04,VWS V14.01,2013-04-01 15:00:00,
2013-04-01 11:05:00,63.4,60.7,29.92,WSW,249,0.0,0.0,91,0.00,,---,0.04,VWS V14.01,2013-04-01 15:05:00,
2013-04-01 11:10:00,63.4,60.7,29.92,WSW,250,0.0,0.0,91,0.00,,---,0.04,VWS V14.01,2013-04-01 15:10:00,
2013-04-01 11:15:00,63.3,60.3,29.92,SW,230,2.0,0.0,90,0.00,,---,0.04,VWS V14.01,2013-04-01 15:15:00,
2013-04-01 11:20:00,63.5,60.5,29.91,SSW,195,0.0,0.0,90,0.00,,---,0.04,VWS V14.01,2013-04-01 15:20:00,
2013-04-01 11:25:00,63.6,60.3,29.91,SW,223,0.0,0.0,89,0.00,,---,0.04,VWS V14.01,2013-04-01 15:25:00,
2013-04-01 11:30:00,63.8,60.8,29.92,WSW,239,4.0,0.0,90,0.00,,---,0.04,VWS V14.01,2013-04-01 15:30:00,
2013-04-01 11:35:00,63.8,60.5,29.92,WSW,246,1.0,0.0,89,0.00,,---,0.04,VWS V14.01,2013-04-01 15:35:00,
2013-04-01 11:40:00,63.6,60.3,29.92,WSW,241,4.0,0.0,89,0.00,,---,0.04,VWS V14.01,2013-04-01 15:40:00,
2013-04-01 11:45:00,63.4,60.1,29.92,WSW,237,2.0,0.0,89,0.00,,---,0.04,VWS V14.01,2013-04-01 15:45:00,
2013-04-01 11:50:00,63.6,60.3,29.92,WSW,246,4.0,0.0,89,0.00,,---,0.04,VWS V14.01,2013-04-01 15:50:00,
2013-04-01 11:55:00,64.3,61.0,29.92,SW,217,4.0,0.0,89,0.00,,---,0.04,VWS V14.01,2013-04-01 15:55:00,
2013-04-01 12:00:00,64.4,60.8,29.92,West,261,2.0,0.0,88,0.00,,---,0.04,VWS V14.01,2013-04-01 16:00:00,
2013-04-01 12:05:00,64.6,61.0,29.92,WSW,246,4.0,0.0,88,0.00,,---,0.04,VWS V14.01,2013-04-01 16:05:00,
2013-04-01 12:10:00,64.6,60.7,29.92,WSW,245,3.0,0.0,87,0.00,,---,0.04,VWS V14.01,2013-04-01 16:10:00,
2013-04-01 12:15:00,64.4,60.5,29.92,WSW,252,4.0,0.0,87,0.00,,---,0.04,VWS V14.01,2013-04-01 16:15:00,
2013-04-01 12:20:00,64.6,60.7,29.91,WSW,253,3.0,0.0,87,0.00,,---,0.04,VWS V14.01,2013-04-01 16:20:00,
2013-04-01 12:25:00,65.0,60.7,29.91,WSW,254,0.0,0.0,86,0.00,,---,0.04,VWS V14.01,2013-04-01 16:25:00,
2013-04-01 12:30:00,65.2,60.9,29.91,WSW,252,4.0,0.0,86,0.00,,---,0.04,VWS V14.01,2013-04-01 16:30:00,
2013-04-01 12:35:00,65.6,61.0,29.91,WSW,250,1.0,0.0,85,0.00,,---,0.04,VWS V14.01,2013-04-01 16:35:00,
2013-04-01 12:40:00,66.2,61.6,29.91,WSW,257,1.0,0.0,85,0.00,,---,0.04,VWS V14.01,2013-04-01 16:40:00,
2013-04-01 12:45:00,66.5,61.2,29.91,WSW,257,2.0,0.0,83,0.00,,---,0.04,VWS V14.01,2013-04-01 16:45:00,
2013-04-01 12:50:00,66.5,61.5,29.90,SW,223,1.0,0.0,84,0.00,,---,0.04,VWS V14.01,2013-04-01 16:50:00,
2013-04-01 12:55:00,65.9,60.6,29.90,SW,219,4.0,0.0,83,0.00,,---,0.04,VWS V14.01,2013-04-01 16:55:00,
2013-04-01 13:00:00,66.0,61.0,29.90,SW,221,2.0,0.0,84,0.00,,---,0.04,VWS V14.01,2013-04-01 17:00:00,
2013-04-01 13:05:00,66.1,60.8,29.90,SW,220,3.0,0.0,83,0.00,,---,0.04,VWS V14.01,2013-04-01 17:05:00,
2013-04-01 13:10:00,66.1,60.8,29.90,WSW,252,4.0,0.0,83,0.00,,---,0.04,VWS V14.01,2013-04-01 17:10:00,
2013-04-01 13:15:00,65.3,60.3,29.90,WSW,256,0.0,0.0,84,0.00,,---,0.04,VWS V14.01,2013-04-01 17:15:00,
2013-04-01 13:20:00,65.1,60.5,29.90,WSW,250,3.0,0.0,85,0.00,,---,0.04,VWS V14.01,2013-04-01 17:20:00,
2013-04-01 13:25:00,65.2,60.6,29.89,WSW,248,0.0,0.0,85,0.00,,---,0.04,VWS V14.01,2013-04-01 17:25:00,
2013-04-01 13:30:00,66.2,61.2,29.89,WSW,247,1.0,0.0,84,0.00,,---,0.04,VWS V14.01,2013-04-01 17:30:00,
2013-04-01 13:35:00,67.0,61.3,29.89,WSW,246,0.0,0.0,82,0.00,,---,0.04,VWS V14.01,2013-04-01 17:35:00,
2013-04-01 13:40:00,67.5,61.5,29.89,WSW,246,3.0,0.0,81,0.00,,---,0.04,VWS V14.01,2013-04-01 17:40:00,
2013-04-01 13:45:00,67.5,61.1,29.89,WSW,245,3.0,0.0,80,0.00,,---,0.04,VWS V14.01,2013-04-01 17:45:00,
2013-04-01 13:50:00,67.0,61.0,29.89,WSW,245,0.0,0.0,81,0.00,,---,0.04,VWS V14.01,2013-04-01 17:50:00,
2013-04-01 13:55:00,66.6,60.9,29.89,WSW,245,1.0,0.0,82,0.00,,---,0.04,VWS V14.01,2013-04-01 17:55:00,
2013-04-01 14:00:00,66.8,61.5,29.89,SSW,199,4.0,0.0,83,0.00,,---,0.04,VWS V14.01,2013-04-01 18:00:00,
2013-04-01 14:01:00,66.6,60.9,29.89,WSW,246,2.0,0.0,82,0.00,,---,0.04,VWS V14.01,2013-04-01 18:01:00,
2013-04-01 14:05:00,67.0,61.0,29.89,WSW,250,2.0,0.0,81,0.00,,---,0.04,VWS V14.01,2013-04-01 18:05:00,
2013-04-01 14:06:00,67.0,61.3,29.89,South,187,3.0,0.0,82,0.00,,---,0.04,VWS V14.01,2013-04-01 18:06:00,
2013-04-01 14:10:00,66.7,60.7,29.89,SW,233,1.0,0.0,81,0.00,,---,0.04,VWS V14.01,2013-04-01 18:10:00,
2013-04-01 14:11:00,66.8,60.8,29.89,SW,231,0.0,0.0,81,0.00,,---,0.04,VWS V14.01,2013-04-01 18:11:00,
2013-04-01 14:15:00,66.1,60.8,29.88,WSW,239,2.0,0.0,83,0.00,,---,0.04,VWS V14.01,2013-04-01 18:15:00,
2013-04-01 14:16:00,66.2,60.5,29.89,WSW,239,1.0,0.0,82,0.00,,---,0.04,VWS V14.01,2013-04-01 18:16:00,
2013-04-01 14:20:00,65.9,60.9,29.88,WSW,238,0.0,0.0,84,0.00,,---,0.04,VWS V14.01,2013-04-01 18:20:00,
2013-04-01 14:21:00,66.0,61.0,29.89,WSW,238,0.0,0.0,84,0.00,,---,0.04,VWS V14.01,2013-04-01 18:21:00,
2013-04-01 14:25:00,65.8,61.2,29.89,SW,236,2.0,0.0,85,0.00,,---,0.04,VWS V14.01,2013-04-01 18:25:00,
2013-04-01 14:26:00,65.8,61.2,29.88,WSW,237,1.0,0.0,85,0.00,,---,0.04,VWS V14.01,2013-04-01 18:26:00,
2013-04-01 14:30:00,65.5,61.9,29.88,SW,236,2.0,0.0,88,0.04,,---,0.08,VWS V14.01,2013-04-01 18:30:00,
2013-04-01 14:31:00,65.6,61.6,29.88,SW,236,0.0,0.0,87,0.04,,---,0.08,VWS V14.01,2013-04-01 18:31:00,
2013-04-01 14:35:00,65.7,62.7,29.88,SW,236,0.0,0.0,90,0.04,,---,0.08,VWS V14.01,2013-04-01 18:35:00,
2013-04-01 14:36:00,65.7,62.7,29.88,SW,236,0.0,0.0,90,0.04,,---,0.08,VWS V14.01,2013-04-01 18:36:00,
2013-04-01 14:40:00,66.1,63.4,29.87,SW,236,0.0,0.0,91,0.04,,---,0.08,VWS V14.01,2013-04-01 18:40:00,
2013-04-01 14:41:00,66.0,63.3,29.87,SW,236,0.0,0.0,91,0.04,,---,0.08,VWS V14.01,2013-04-01 18:41:00,
2013-04-01 14:45:00,66.7,64.0,29.87,SW,236,0.0,0.0,91,0.04,,---,0.08,VWS V14.01,2013-04-01 18:45:00,
2013-04-01 14:47:00,66.7,64.0,29.87,SW,236,0.0,0.0,91,0.04,,---,0.08,VWS V14.01,2013-04-01 18:47:00,
2013-04-01 14:50:00,67.6,64.2,29.87,SW,236,3.0,0.0,89,0.04,,---,0.08,VWS V14.01,2013-04-01 18:50:00,
2013-04-01 14:52:00,67.6,64.2,29.87,SW,236,3.0,0.0,89,0.04,,---,0.08,VWS V14.01,2013-04-01 18:52:00,
2013-04-01 14:55:00,68.4,64.7,29.87,SW,236,0.0,0.0,88,0.04,,---,0.08,VWS V14.01,2013-04-01 18:55:00,
2013-04-01 14:57:00,68.4,64.7,29.87,SW,236,0.0,0.0,88,0.04,,---,0.08,VWS V14.01,2013-04-01 18:57:00,
2013-04-01 15:04:00,69.2,64.2,29.86,SW,236,0.0,0.0,84,0.04,,---,0.08,VWS V14.01,2013-04-01 19:04:00,
2013-04-01 15:05:00,69.4,64.7,29.86,SW,236,0.0,0.0,85,0.04,,---,0.08,VWS V14.01,2013-04-01 19:05:00,
2013-04-01 15:09:00,69.6,64.2,29.86,SW,236,4.0,0.0,83,0.04,,---,0.08,VWS V14.01,2013-04-01 19:09:00,
2013-04-01 15:10:00,69.9,63.8,29.86,SW,236,1.0,0.0,81,0.04,,---,0.08,VWS V14.01,2013-04-01 19:10:00,
2013-04-01 15:14:00,69.9,63.1,29.86,SW,236,0.0,0.0,79,0.04,,---,0.08,VWS V14.01,2013-04-01 19:14:00,
2013-04-01 15:15:00,70.1,63.3,29.86,WSW,237,2.0,0.0,79,0.04,,---,0.08,VWS V14.01,2013-04-01 19:15:00,
2013-04-01 15:19:00,70.2,63.4,29.86,WSW,238,2.0,0.0,79,0.04,,---,0.08,VWS V14.01,2013-04-01 19:19:00,
2013-04-01 15:20:00,70.4,63.6,29.86,West,260,5.0,0.0,79,0.04,,---,0.08,VWS V14.01,2013-04-01 19:20:00,
2013-04-01 15:24:00,70.4,63.2,29.85,West,265,5.0,0.0,78,0.04,,---,0.08,VWS V14.01,2013-04-01 19:24:00,
2013-04-01 15:25:00,70.6,62.3,29.85,West,268,6.0,0.0,75,0.04,,---,0.08,VWS V14.01,2013-04-01 19:25:00,
2013-04-01 15:29:00,71.1,62.8,29.85,West,273,4.0,0.0,75,0.04,,---,0.08,VWS V14.01,2013-04-01 19:29:00,
2013-04-01 15:30:00,71.9,63.2,29.85,WNW,284,5.0,0.0,74,0.04,,---,0.08,VWS V14.01,2013-04-01 19:30:00,
2013-04-01 15:34:00,72.5,62.6,29.85,WNW,285,5.0,0.0,71,0.00,,---,0.08,VWS V14.01,2013-04-01 19:34:00,
2013-04-01 15:35:00,73.0,61.4,29.85,NW,310,12.0,0.0,67,0.00,,---,0.08,VWS V14.01,2013-04-01 19:35:00,
2013-04-01 15:39:00,73.3,61.7,29.85,WNW,299,7.0,0.0,67,0.00,,---,0.08,VWS V14.01,2013-04-01 19:39:00,
2013-04-01 15:40:00,73.3,61.3,29.85,NW,312,7.0,0.0,66,0.00,,---,0.08,VWS V14.01,2013-04-01 19:40:00,
2013-04-01 15:44:00,73.3,61.7,29.85,WNW,297,8.0,0.0,67,0.00,,---,0.08,VWS V14.01,2013-04-01 19:44:00,
2013-04-01 15:45:00,73.4,61.4,29.85,WNW,300,11.0,0.0,66,0.00,,---,0.08,VWS V14.01,2013-04-01 19:45:00,
2013-04-01 15:49:00,73.4,60.5,29.85,WNW,292,14.0,0.0,64,0.00,,---,0.08,VWS V14.01,2013-04-01 19:49:00,
2013-04-01 15:50:00,73.5,60.6,29.85,NW,309,12.0,0.0,64,0.01,,---,0.09,VWS V14.01,2013-04-01 19:50:00,
2013-04-01 15:54:00,73.6,60.7,29.85,NW,325,10.0,0.0,64,0.01,,---,0.09,VWS V14.01,2013-04-01 19:54:00,
2013-04-01 15:55:00,74.0,61.5,29.85,WNW,294,12.0,0.0,65,0.01,,---,0.09,VWS V14.01,2013-04-01 19:55:00,
2013-04-01 15:59:00,74.3,61.8,29.85,NW,311,9.0,0.0,65,0.01,,---,0.09,VWS V14.01,2013-04-01 19:59:00,
2013-04-01 16:00:00,74.8,61.4,29.85,WNW,303,3.0,0.0,63,0.01,,---,0.09,VWS V14.01,2013-04-01 20:00:00,
2013-04-01 16:04:00,74.9,61.0,29.85,NW,311,2.0,0.0,62,0.01,,---,0.09,VWS V14.01,2013-04-01 20:04:00,
2013-04-01 16:05:00,74.9,61.0,29.85,WNW,295,4.0,0.0,62,0.01,,---,0.09,VWS V14.01,2013-04-01 20:05:00,
2013-04-01 16:09:00,74.7,60.4,29.84,WNW,282,2.0,0.0,61,0.01,,---,0.09,VWS V14.01,2013-04-01 20:09:00,
2013-04-01 16:10:00,74.8,61.4,29.84,WNW,293,0.0,0.0,63,0.01,,---,0.09,VWS V14.01,2013-04-01 20:10:00,
2013-04-01 16:14:00,75.0,61.6,29.84,NW,321,5.0,0.0,63,0.01,,---,0.09,VWS V14.01,2013-04-01 20:14:00,
2013-04-01 16:15:00,75.1,60.8,29.84,NW,309,5.0,0.0,61,0.01,,---,0.09,VWS V14.01,2013-04-01 20:15:00,
2013-04-01 16:19:00,75.1,60.3,29.84,WNW,292,2.0,0.0,60,0.01,,---,0.09,VWS V14.01,2013-04-01 20:19:00,
2013-04-01 16:20:00,75.2,61.3,29.84,WNW,298,0.0,0.0,62,0.01,,---,0.09,VWS V14.01,2013-04-01 20:20:00,
2013-04-01 16:24:00,75.4,60.6,29.84,West,268,8.0,0.0,60,0.01,,---,0.09,VWS V14.01,2013-04-01 20:24:00,
2013-04-01 16:25:00,75.5,60.2,29.84,West,263,5.0,0.0,59,0.01,,---,0.09,VWS V14.01,2013-04-01 20:25:00,
2013-04-01 16:29:00,75.5,60.7,29.84,NW,325,8.0,0.0,60,0.01,,---,0.09,VWS V14.01,2013-04-01 20:29:00,
2013-04-01 16:30:00,75.4,61.5,29.84,WNW,291,3.0,0.0,62,0.01,,---,0.09,VWS V14.01,2013-04-01 20:30:00,
2013-04-01 16:34:00,75.7,60.8,29.84,NW,305,10.0,0.0,60,0.01,,---,0.09,VWS V14.01,2013-04-01 20:34:00,
2013-04-01 16:35:00,75.8,60.0,29.84,NW,318,7.0,0.0,58,0.01,,---,0.09,VWS V14.01,2013-04-01 20:35:00,
2013-04-01 16:39:00,75.7,59.9,29.84,West,276,3.0,0.0,58,0.01,,---,0.09,VWS V14.01,2013-04-01 20:39:00,
2013-04-01 16:40:00,75.8,59.5,29.84,NW,304,6.0,0.0,57,0.01,,---,0.09,VWS V14.01,2013-04-01 20:40:00,
2013-04-01 16:44:00,75.6,59.8,29.84,WNW,284,1.0,0.0,58,0.01,,---,0.09,VWS V14.01,2013-04-01 20:44:00,
2013-04-01 16:45:00,75.6,59.8,29.84,WNW,293,4.0,0.0,58,0.01,,---,0.09,VWS V14.01,2013-04-01 20:45:00,
2013-04-01 16:49:00,75.7,59.9,29.84,WNW,284,4.0,0.0,58,0.01,,---,0.09,VWS V14.01,2013-04-01 20:49:00,
2013-04-01 16:50:00,75.8,59.5,29.84,WNW,293,4.0,0.0,57,0.01,,---,0.09,VWS V14.01,2013-04-01 20:50:00,
2013-04-01 16:54:00,75.9,60.1,29.84,WNW,284,6.0,0.0,58,0.00,,---,0.09,VWS V14.01,2013-04-01 20:54:00,
2013-04-01 16:55:00,75.8,59.5,29.84,WNW,290,1.0,0.0,57,0.00,,---,0.09,VWS V14.01,2013-04-01 20:55:00,
2013-04-01 16:59:00,75.8,59.5,29.84,West,273,4.0,0.0,57,0.00,,---,0.09,VWS V14.01,2013-04-01 20:59:00,
2013-04-01 17:00:00,75.9,60.1,29.84,WNW,298,11.0,0.0,58,0.00,,---,0.09,VWS V14.01,2013-04-01 21:00:00,
2013-04-01 17:05:00,75.7,59.4,29.84,WNW,300,10.0,0.0,57,0.00,,---,0.09,VWS V14.01,2013-04-01 21:05:00,
2013-04-01 17:09:00,75.5,59.2,29.84,WNW,290,4.0,0.0,57,0.00,,---,0.09,VWS V14.01,2013-04-01 21:09:00,
2013-04-01 17:10:00,75.2,59.4,29.84,WNW,289,3.0,0.0,58,0.00,,---,0.09,VWS V14.01,2013-04-01 21:10:00,
2013-04-01 17:15:00,74.8,60.5,29.84,SW,215,6.0,0.0,61,0.00,,---,0.09,VWS V14.01,2013-04-01 21:15:00,
2013-04-01 17:20:00,71.9,60.8,29.84,WSW,239,0.0,0.0,68,0.00,,---,0.09,VWS V14.01,2013-04-01 21:20:00,
2013-04-01 17:25:00,70.2,60.8,29.84,WSW,238,0.0,0.0,72,0.00,,---,0.09,VWS V14.01,2013-04-01 21:25:00,
2013-04-01 17:30:00,69.9,60.9,29.84,SSW,205,0.0,0.0,73,0.00,,---,0.09,VWS V14.01,2013-04-01 21:30:00,
2013-04-01 17:35:00,70.3,60.9,29.84,West,269,0.0,0.0,72,0.00,,---,0.09,VWS V14.01,2013-04-01 21:35:00,
2013-04-01 17:40:00,71.0,61.1,29.84,West,263,0.0,0.0,71,0.00,,---,0.09,VWS V14.01,2013-04-01 21:40:00,
2013-04-01 17:45:00,71.5,61.6,29.84,West,259,0.0,0.0,71,0.00,,---,0.09,VWS V14.01,2013-04-01 21:45:00,
2013-04-01 17:50:00,70.9,61.0,29.84,WSW,254,0.0,0.0,71,0.00,,---,0.09,VWS V14.01,2013-04-01 21:50:00,
2013-04-01 17:55:00,70.4,61.0,29.84,WSW,242,0.0,0.0,72,0.00,,---,0.09,VWS V14.01,2013-04-01 21:55:00,
2013-04-01 18:00:00,70.9,61.0,29.84,WSW,239,0.0,0.0,71,0.00,,---,0.09,VWS V14.01,2013-04-01 22:00:00,
2013-04-01 18:05:00,70.7,61.2,29.84,SW,222,0.0,0.0,72,0.00,,---,0.09,VWS V14.01,2013-04-01 22:05:00,
2013-04-01 18:10:00,70.4,61.3,29.84,SW,223,0.0,0.0,73,0.00,,---,0.09,VWS V14.01,2013-04-01 22:10:00,
2013-04-01 18:15:00,70.8,61.3,29.84,SW,221,0.0,0.0,72,0.00,,---,0.09,VWS V14.01,2013-04-01 22:15:00,
2013-04-01 18:20:00,70.4,61.0,29.85,WSW,246,0.0,0.0,72,0.00,,---,0.09,VWS V14.01,2013-04-01 22:20:00,
2013-04-01 18:25:00,70.0,61.0,29.85,WSW,242,1.0,0.0,73,0.00,,---,0.09,VWS V14.01,2013-04-01 22:25:00,
2013-04-01 18:30:00,68.8,60.6,29.85,WSW,238,3.0,0.0,75,0.00,,---,0.09,VWS V14.01,2013-04-01 22:30:00,
2013-04-01 18:35:00,67.9,60.1,29.85,WSW,238,0.0,0.0,76,0.00,,---,0.09,VWS V14.01,2013-04-01 22:35:00,
2013-04-01 18:40:00,68.0,60.2,29.85,WSW,238,3.0,0.0,76,0.00,,---,0.09,VWS V14.01,2013-04-01 22:40:00,
2013-04-01 18:45:00,68.2,60.3,29.85,SW,233,0.0,0.0,76,0.00,,---,0.09,VWS V14.01,2013-04-01 22:45:00,
2013-04-01 18:50:00,68.2,60.3,29.85,SW,233,0.0,0.0,76,0.00,,---,0.09,VWS V14.01,2013-04-01 22:50:00,
2013-04-01 18:55:00,67.7,59.9,29.86,SW,232,0.0,0.0,76,0.00,,---,0.09,VWS V14.01,2013-04-01 22:55:00,
2013-04-01 19:00:00,67.1,60.0,29.86,SW,232,0.0,0.0,78,0.00,,---,0.09,VWS V14.01,2013-04-01 23:00:00,
2013-04-01 19:05:00,67.1,60.4,29.86,SW,232,0.0,0.0,79,0.00,,---,0.09,VWS V14.01,2013-04-01 23:05:00,
2013-04-01 19:10:00,66.8,60.1,29.86,SW,232,0.0,0.0,79,0.00,,---,0.09,VWS V14.01,2013-04-01 23:10:00,
2013-04-01 19:15:00,66.4,60.0,29.86,SW,232,0.0,0.0,80,0.00,,---,0.09,VWS V14.01,2013-04-01 23:15:00,
2013-04-01 19:20:00,66.0,59.7,29.86,SW,232,0.0,0.0,80,0.00,,---,0.09,VWS V14.01,2013-04-01 23:20:00,
2013-04-01 19:25:00,65.7,59.7,29.86,SW,232,0.0,0.0,81,0.00,,---,0.09,VWS V14.01,2013-04-01 23:25:00,
2013-04-01 19:30:00,65.3,59.3,29.86,SW,232,0.0,0.0,81,0.00,,---,0.09,VWS V14.01,2013-04-01 23:30:00,
2013-04-01 19:35:00,64.8,59.2,29.87,SW,232,0.0,0.0,82,0.00,,---,0.09,VWS V14.01,2013-04-01 23:35:00,
2013-04-01 19:40:00,64.3,59.0,29.87,SW,232,0.0,0.0,83,0.00,,---,0.09,VWS V14.01,2013-04-01 23:40:00,
2013-04-01 19:45:00,64.0,59.1,29.87,SW,232,0.0,0.0,84,0.00,,---,0.09,VWS V14.01,2013-04-01 23:45:00,
2013-04-01 19:50:00,63.5,58.9,29.87,SW,232,0.0,0.0,85,0.00,,---,0.09,VWS V14.01,2013-04-01 23:50:00,
2013-04-01 19:55:00,63.2,59.0,29.87,SW,232,0.0,0.0,86,0.00,,---,0.09,VWS V14.01,2013-04-01 23:55:00,
2013-04-01 20:00:00,62.9,58.7,29.87,SW,232,0.0,0.0,86,0.00,,---,0.09,VWS V14.01,2013-04-02 00:00:00,
2013-04-01 20:05:00,62.7,58.8,29.87,SW,232,0.0,0.0,87,0.00,,---,0.09,VWS V14.01,2013-04-02 00:05:00,
2013-04-01 20:10:00,62.5,58.6,29.87,SW,232,0.0,0.0,87,0.00,,---,0.09,VWS V14.01,2013-04-02 00:10:00,
2013-04-01 20:15:00,62.3,58.7,29.87,SW,232,0.0,0.0,88,0.00,,---,0.09,VWS V14.01,2013-04-02 00:15:00,
2013-04-01 20:20:00,62.1,58.5,29.88,SW,232,0.0,0.0,88,0.00,,---,0.09,VWS V14.01,2013-04-02 00:20:00,
2013-04-01 20:25:00,61.8,58.2,29.88,SW,232,0.0,0.0,88,0.00,,---,0.09,VWS V14.01,2013-04-02 00:25:00,
2013-04-01 20:30:00,61.7,58.4,29.88,SW,232,0.0,0.0,89,0.00,,---,0.09,VWS V14.01,2013-04-02 00:30:00,
2013-04-01 20:35:00,61.5,58.2,29.88,SW,232,0.0,0.0,89,0.00,,---,0.09,VWS V14.01,2013-04-02 00:35:00,
2013-04-01 20:40:00,61.4,58.1,29.88,SW,232,0.0,0.0,89,0.00,,---,0.09,VWS V14.01,2013-04-02 00:40:00,
2013-04-01 20:45:00,61.3,58.3,29.88,SW,232,0.0,0.0,90,0.00,,---,0.09,VWS V14.01,2013-04-02 00:45:00,
2013-04-01 20:50:00,61.2,58.2,29.88,SW,232,0.0,0.0,90,0.00,,---,0.09,VWS V14.01,2013-04-02 00:50:00,
2013-04-01 20:51:00,61.2,58.2,29.88,SW,232,0.0,0.0,90,0.00,,---,0.09,VWS V14.01,2013-04-02 00:51:00,
2013-04-01 20:55:00,61.1,58.2,29.88,SW,232,0.0,0.0,90,0.00,,---,0.09,VWS V14.01,2013-04-02 00:55:00,
2013-04-01 20:56:00,61.1,58.2,29.88,SW,232,0.0,0.0,90,0.00,,---,0.09,VWS V14.01,2013-04-02 00:56:00,
2013-04-01 21:00:00,61.1,58.2,29.88,SW,232,0.0,0.0,90,0.00,,---,0.09,VWS V14.01,2013-04-02 01:00:00,
2013-04-01 21:01:00,61.1,58.2,29.88,SW,232,0.0,0.0,90,0.00,,---,0.09,VWS V14.01,2013-04-02 01:01:00,
2013-04-01 21:05:00,61.0,58.0,29.88,SW,232,0.0,0.0,90,0.00,,---,0.09,VWS V14.01,2013-04-02 01:05:00,
2013-04-01 21:06:00,61.0,58.0,29.88,SW,232,0.0,0.0,90,0.00,,---,0.09,VWS V14.01,2013-04-02 01:06:00,
2013-04-01 21:10:00,60.9,58.3,29.89,SW,232,0.0,0.0,91,0.00,,---,0.09,VWS V14.01,2013-04-02 01:10:00,
2013-04-01 21:11:00,60.9,58.0,29.88,SW,232,0.0,0.0,90,0.00,,---,0.09,VWS V14.01,2013-04-02 01:11:00,
2013-04-01 21:15:00,60.9,58.3,29.89,SW,232,0.0,0.0,91,0.00,,---,0.09,VWS V14.01,2013-04-02 01:15:00,
2013-04-01 21:16:00,60.9,58.3,29.89,SW,232,0.0,0.0,91,0.00,,---,0.09,VWS V14.01,2013-04-02 01:16:00,
2013-04-01 21:20:00,60.8,58.2,29.89,SW,232,0.0,0.0,91,0.00,,---,0.09,VWS V14.01,2013-04-02 01:20:00,
2013-04-01 21:21:00,60.8,58.2,29.89,SW,232,0.0,0.0,91,0.00,,---,0.09,VWS V14.01,2013-04-02 01:21:00,
2013-04-01 21:25:00,60.7,58.1,29.89,SW,232,0.0,0.0,91,0.00,,---,0.09,VWS V14.01,2013-04-02 01:25:00,
2013-04-01 21:26:00,60.8,58.2,29.89,SW,232,0.0,0.0,91,0.00,,---,0.09,VWS V14.01,2013-04-02 01:26:00,
2013-04-01 21:30:00,60.7,58.1,29.89,SW,232,0.0,0.0,91,0.00,,---,0.09,VWS V14.01,2013-04-02 01:30:00,
2013-04-01 21:31:00,60.7,58.1,29.89,SW,232,0.0,0.0,91,0.00,,---,0.09,VWS V14.01,2013-04-02 01:31:00,
2013-04-01 21:35:00,60.7,58.1,29.89,SW,232,0.0,0.0,91,0.00,,---,0.09,VWS V14.01,2013-04-02 01:35:00,
2013-04-01 21:36:00,60.7,58.1,29.89,SW,232,0.0,0.0,91,0.00,,---,0.09,VWS V14.01,2013-04-02 01:36:00,
2013-04-01 21:40:00,60.6,58.0,29.89,SW,232,0.0,0.0,91,0.00,,---,0.09,VWS V14.01,2013-04-02 01:40:00,
2013-04-01 21:41:00,60.6,58.0,29.89,SW,232,0.0,0.0,91,0.00,,---,0.09,VWS V14.01,2013-04-02 01:41:00,
2013-04-01 21:45:00,60.6,58.3,29.90,SW,232,0.0,0.0,92,0.00,,---,0.09,VWS V14.01,2013-04-02 01:45:00,
2013-04-01 21:46:00,60.6,58.3,29.90,SW,232,0.0,0.0,92,0.00,,---,0.09,VWS V14.01,2013-04-02 01:46:00,
2013-04-01 21:50:00,60.6,58.3,29.90,SW,232,0.0,0.0,92,0.00,,---,0.09,VWS V14.01,2013-04-02 01:50:00,
2013-04-01 21:51:00,60.6,58.3,29.90,SW,232,0.0,0.0,92,0.00,,---,0.09,VWS V14.01,2013-04-02 01:51:00,
2013-04-01 21:55:00,60.6,58.3,29.90,SW,232,0.0,0.0,92,0.00,,---,0.09,VWS V14.01,2013-04-02 01:55:00,
2013-04-01 21:56:00,60.7,58.4,29.90,SW,232,0.0,0.0,92,0.00,,---,0.09,VWS V14.01,2013-04-02 01:56:00,
2013-04-01 22:00:00,60.6,58.3,29.90,SW,232,0.0,0.0,92,0.00,,---,0.09,VWS V14.01,2013-04-02 02:00:00,
2013-04-01 22:01:00,60.6,58.3,29.90,SW,232,0.0,0.0,92,0.00,,---,0.09,VWS V14.01,2013-04-02 02:01:00,
2013-04-01 22:05:00,60.6,58.3,29.90,SW,232,0.0,0.0,92,0.00,,---,0.09,VWS V14.01,2013-04-02 02:05:00,
2013-04-01 22:06:00,60.6,58.3,29.90,SW,232,0.0,0.0,92,0.00,,---,0.09,VWS V14.01,2013-04-02 02:06:00,
2013-04-01 22:10:00,60.6,58.3,29.90,SW,232,0.0,0.0,92,0.00,,---,0.09,VWS V14.01,2013-04-02 02:10:00,
2013-04-01 22:12:00,60.6,58.3,29.90,SW,232,0.0,0.0,92,0.00,,---,0.09,VWS V14.01,2013-04-02 02:12:00,
2013-04-01 22:15:00,60.7,58.4,29.91,SW,232,0.0,0.0,92,0.00,,---,0.09,VWS V14.01,2013-04-02 02:15:00,
2013-04-01 22:17:00,60.7,58.4,29.91,SW,232,0.0,0.0,92,0.00,,---,0.09,VWS V14.01,2013-04-02 02:17:00,
2013-04-01 22:20:00,60.7,58.1,29.91,SW,232,0.0,0.0,91,0.00,,---,0.09,VWS V14.01,2013-04-02 02:20:00,
2013-04-01 22:22:00,60.7,58.1,29.91,SW,232,0.0,0.0,91,0.00,,---,0.09,VWS V14.01,2013-04-02 02:22:00,
2013-04-01 22:25:00,60.7,58.1,29.91,SW,232,0.0,0.0,91,0.00,,---,0.09,VWS V14.01,2013-04-02 02:25:00,
2013-04-01 22:27:00,60.7,58.1,29.91,SW,232,0.0,0.0,91,0.00,,---,0.09,VWS V14.01,2013-04-02 02:27:00,
2013-04-01 22:30:00,60.7,58.1,29.91,SW,232,0.0,0.0,91,0.00,,---,0.09,VWS V14.01,2013-04-02 02:30:00,
2013-04-01 22:32:00,60.7,58.1,29.91,SW,232,0.0,0.0,91,0.00,,---,0.09,VWS V14.01,2013-04-02 02:32:00,
2013-04-01 22:35:00,60.7,58.1,29.92,SW,232,3.0,0.0,91,0.00,,---,0.09,VWS V14.01,2013-04-02 02:35:00,
2013-04-01 22:37:00,60.7,58.1,29.92,SW,232,3.0,0.0,91,0.00,,---,0.09,VWS V14.01,2013-04-02 02:37:00,
2013-04-01 22:40:00,60.7,58.4,29.92,SW,232,0.0,0.0,92,0.00,,---,0.09,VWS V14.01,2013-04-02 02:40:00,
2013-04-01 22:42:00,60.7,58.4,29.92,SW,232,0.0,0.0,92,0.00,,---,0.09,VWS V14.01,2013-04-02 02:42:00,
2013-04-01 22:45:00,60.6,58.3,29.92,SW,232,0.0,0.0,92,0.00,,---,0.09,VWS V14.01,2013-04-02 02:45:00,
2013-04-01 22:47:00,60.6,58.3,29.92,SW,232,0.0,0.0,92,0.00,,---,0.09,VWS V14.01,2013-04-02 02:47:00,
2013-04-01 22:50:00,60.6,58.3,29.92,SW,232,0.0,0.0,92,0.00,,---,0.09,VWS V14.01,2013-04-02 02:50:00,
2013-04-01 22:52:00,60.6,58.3,29.92,SW,232,0.0,0.0,92,0.00,,---,0.09,VWS V14.01,2013-04-02 02:52:00,
2013-04-01 22:55:00,60.6,58.3,29.92,SW,232,0.0,0.0,92,0.00,,---,0.09,VWS V14.01,2013-04-02 02:55:00,
2013-04-01 22:57:00,60.6,58.3,29.92,SW,232,0.0,0.0,92,0.00,,---,0.09,VWS V14.01,2013-04-02 02:57:00,
2013-04-01 23:00:00,60.5,58.2,29.92,SW,232,0.0,0.0,92,0.00,,---,0.09,VWS V14.01,2013-04-02 03:00:00,
2013-04-01 23:02:00,60.5,58.2,29.92,SW,232,0.0,0.0,92,0.00,,---,0.09,VWS V14.01,2013-04-02 03:02:00,
2013-04-01 23:05:00,60.5,58.2,29.92,SW,232,0.0,0.0,92,0.00,,---,0.09,VWS V14.01,2013-04-02 03:05:00,
2013-04-01 23:07:00,60.5,58.2,29.92,SW,232,0.0,0.0,92,0.00,,---,0.09,VWS V14.01,2013-04-02 03:07:00,
2013-04-01 23:10:00,60.3,58.0,29.92,SW,232,0.0,0.0,92,0.00,,---,0.09,VWS V14.01,2013-04-02 03:10:00,
2013-04-01 23:12:00,60.3,58.0,29.92,SW,232,0.0,0.0,92,0.00,,---,0.09,VWS V14.01,2013-04-02 03:12:00,
2013-04-01 23:15:00,60.2,57.9,29.92,SW,232,0.0,0.0,92,0.00,,---,0.09,VWS V14.01,2013-04-02 03:15:00,
2013-04-01 23:17:00,60.2,57.9,29.93,SW,232,0.0,0.0,92,0.00,,---,0.09,VWS V14.01,2013-04-02 03:17:00,
2013-04-01 23:20:00,60.1,57.8,29.93,SW,232,0.0,0.0,92,0.00,,---,0.09,VWS V14.01,2013-04-02 03:20:00,
2013-04-01 23:22:00,60.1,57.8,29.93,SW,232,0.0,0.0,92,0.00,,---,0.09,VWS V14.01,2013-04-02 03:22:00,
2013-04-01 23:25:00,59.8,57.5,29.93,SW,232,0.0,0.0,92,0.00,,---,0.09,VWS V14.01,2013-04-02 03:25:00,
2013-04-01 23:27:00,59.8,57.5,29.93,SW,232,0.0,0.0,92,0.00,,---,0.09,VWS V14.01,2013-04-02 03:27:00,
2013-04-01 23:30:00,59.5,57.2,29.93,SW,232,0.0,0.0,92,0.00,,---,0.09,VWS V14.01,2013-04-02 03:30:00,
2013-04-01 23:32:00,59.5,57.2,29.93,SW,232,0.0,0.0,92,0.00,,---,0.09,VWS V14.01,2013-04-02 03:32:00,
2013-04-01 23:35:00,59.2,56.9,29.93,SW,232,0.0,0.0,92,0.00,,---,0.09,VWS V14.01,2013-04-02 03:35:00,
2013-04-01 23:37:00,59.2,56.9,29.93,SW,232,0.0,0.0,92,0.00,,---,0.09,VWS V14.01,2013-04-02 03:37:00,
2013-04-01 23:40:00,59.0,56.7,29.93,SW,232,0.0,0.0,92,0.00,,---,0.09,VWS V14.01,2013-04-02 03:40:00,
2013-04-01 23:42:00,59.0,56.7,29.93,SW,232,0.0,0.0,92,0.00,,---,0.09,VWS V14.01,2013-04-02 03:42:00,
2013-04-01 23:45:00,58.9,56.6,29.93,SW,232,0.0,0.0,92,0.00,,---,0.09,VWS V14.01,2013-04-02 03:45:00,
2013-04-01 23:47:00,58.9,56.6,29.93,SW,232,0.0,0.0,92,0.00,,---,0.09,VWS V14.01,2013-04-02 03:47:00,
2013-04-01 23:50:00,58.7,56.7,29.93,SW,232,0.0,0.0,93,0.00,,---,0.09,VWS V14.01,2013-04-02 03:50:00,
2013-04-01 23:52:00,58.7,56.7,29.93,SW,232,0.0,0.0,93,0.00,,---,0.09,VWS V14.01,2013-04-02 03:52:00,
2013-04-01 23:55:00,58.6,56.6,29.93,SW,232,0.0,0.0,93,0.00,,---,0.09,VWS V14.01,2013-04-02 03:55:00,
2013-04-01 23:57:00,58.6,56.6,29.93,SW,232,0.0,0.0,93,0.00,,---,0.09,VWS V14.01,2013-04-02 03:57:00,